RZO125 LPLA-KBOS

Flight info

Callsign RZO125
Flight time N/A
Altitude 40000
Route M081F400 DCT SIPRU DCT 40N030W 43N040W 44N050W DCT BOBTU DCT JAROM DCT LOMPI/N0462F400 N56G BRADD DCT EURRO OOSHN5
Aircraft A333/H-SDE3GHIJ2J3J5M1RVWXY/LB2D1

Departure

Time 2026-04-27 14:23
Airport Lajes Airport (LPLA)

Arrival

Time N/A
Airport Boston Logan International Airport (KBOS)
Time Latitude Longitude Altitude Speed Heading
2026-04-27 14:00 38.75681 -27.08887 206 ft 0 kts 141°
2026-04-27 14:19 38.75681 -27.08886 206 ft 0 kts 141°
2026-04-27 14:19 38.75670 -27.08872 206 ft 4 kts 131°
2026-04-27 14:20 38.75655 -27.08824 206 ft 7 kts 94°
2026-04-27 14:20 38.75634 -27.08750 205 ft 11 kts 133°
2026-04-27 14:20 38.75565 -27.08678 205 ft 12 kts 142°
2026-04-27 14:20 38.75499 -27.08610 205 ft 11 kts 141°
2026-04-27 14:21 38.75465 -27.08534 205 ft 9 kts 80°
2026-04-27 14:21 38.75505 -27.08448 202 ft 12 kts 53°
2026-04-27 14:21 38.75539 -27.08402 200 ft 3 kts 13°
2026-04-27 14:21 38.75560 -27.08424 200 ft 4 kts 314°
2026-04-27 14:22 38.75625 -27.08495 200 ft 31 kts 320°
2026-04-27 14:22 38.75992 -27.08879 197 ft 104 kts 320°
2026-04-27 14:22 38.76723 -27.09638 177 ft 168 kts 322°
2026-04-27 14:22 38.77740 -27.10665 527 ft 189 kts 318°
2026-04-27 14:23 38.78741 -27.11721 1195 ft 190 kts 313°
2026-04-27 14:23 38.79655 -27.12921 1925 ft 190 kts 304°
2026-04-27 14:23 38.80436 -27.14268 2629 ft 194 kts 298°
2026-04-27 14:23 38.81193 -27.15710 3357 ft 199 kts 298°
2026-04-27 14:24 38.81949 -27.17189 4091 ft 203 kts 297°
2026-04-27 14:24 38.82735 -27.18736 4662 ft 216 kts 298°
2026-04-27 14:24 38.83553 -27.20341 5070 ft 216 kts 298°
2026-04-27 14:24 38.84418 -27.22051 5118 ft 239 kts 298°
2026-04-27 14:25 38.85344 -27.23874 5361 ft 255 kts 298°
2026-04-27 14:25 38.86330 -27.25818 5798 ft 263 kts 299°
2026-04-27 14:25 38.87362 -27.27856 6081 ft 280 kts 299°
2026-04-27 14:25 38.88450 -27.30006 6384 ft 296 kts 299°
2026-04-27 14:26 38.89605 -27.32288 6656 ft 312 kts 300°
2026-04-27 14:26 38.90781 -27.34613 7249 ft 316 kts 300°
2026-04-27 14:26 38.91974 -27.36975 7918 ft 317 kts 300°
2026-04-27 14:26 38.93174 -27.39349 8530 ft 319 kts 300°
2026-04-27 14:27 38.94383 -27.41748 9101 ft 323 kts 300°
2026-04-27 14:27 38.95598 -27.44158 9695 ft 325 kts 300°
2026-04-27 14:27 38.96835 -27.46617 10242 ft 328 kts 300°
2026-04-27 14:27 38.98077 -27.49081 10800 ft 332 kts 300°
2026-04-27 14:28 38.99319 -27.51551 11361 ft 334 kts 300°
2026-04-27 14:28 39.00591 -27.54086 11902 ft 338 kts 300°
2026-04-27 14:28 39.01862 -27.56614 12444 ft 340 kts 300°
2026-04-27 14:28 39.03150 -27.59182 12948 ft 343 kts 300°
2026-04-27 14:29 39.04441 -27.61758 13455 ft 346 kts 300°
2026-04-27 14:29 39.05735 -27.64337 13947 ft 348 kts 300°
2026-04-27 14:29 39.07045 -27.66953 14489 ft 350 kts 299°
2026-04-27 14:29 39.08376 -27.69617 14996 ft 352 kts 299°
2026-04-27 14:30 39.09693 -27.72249 15512 ft 353 kts 299°
2026-04-27 14:30 39.11015 -27.74899 15966 ft 356 kts 299°
2026-04-27 14:30 39.12345 -27.77567 16446 ft 358 kts 299°
2026-04-27 14:30 39.13693 -27.80273 16918 ft 359 kts 298°
2026-04-27 14:31 39.15039 -27.82975 17326 ft 362 kts 298°
2026-04-27 14:31 39.16406 -27.85725 17793 ft 363 kts 298°
2026-04-27 14:31 39.17759 -27.88450 18229 ft 364 kts 298°
2026-04-27 14:31 39.18969 -27.91306 18666 ft 364 kts 293°
2026-04-27 14:32 39.20128 -27.94216 19060 ft 367 kts 293°
2026-04-27 14:32 39.21294 -27.97125 19518 ft 367 kts 294°
2026-04-27 14:32 39.22464 -28.00048 19914 ft 370 kts 293°
2026-04-27 14:32 39.23644 -28.02992 20322 ft 371 kts 293°
2026-04-27 14:33 39.24824 -28.05942 20717 ft 373 kts 293°
2026-04-27 14:33 39.26014 -28.08918 21117 ft 374 kts 294°
2026-04-27 14:33 39.27210 -28.11910 21486 ft 376 kts 293°
2026-04-27 14:33 39.28392 -28.14875 21882 ft 377 kts 294°
2026-04-27 14:34 39.29594 -28.17891 22252 ft 378 kts 294°
2026-04-27 14:34 39.30803 -28.20928 22623 ft 380 kts 294°
2026-04-27 14:34 39.32001 -28.23938 22979 ft 381 kts 294°
2026-04-27 14:34 39.33215 -28.26994 23336 ft 383 kts 294°
2026-04-27 14:35 39.34425 -28.30035 23742 ft 383 kts 293°
2026-04-27 14:35 39.35641 -28.33108 24043 ft 385 kts 294°
2026-04-27 14:35 39.36855 -28.36164 24394 ft 386 kts 293°
2026-04-27 14:35 39.38069 -28.39234 24733 ft 387 kts 293°
2026-04-27 14:36 39.39292 -28.42325 25033 ft 390 kts 293°
2026-04-27 14:36 39.40537 -28.45478 25410 ft 390 kts 293°
2026-04-27 14:36 39.41756 -28.48568 25768 ft 390 kts 293°
2026-04-27 14:36 39.42997 -28.51712 26050 ft 393 kts 292°
2026-04-27 14:37 39.44235 -28.54858 26325 ft 396 kts 292°
2026-04-27 14:37 39.45480 -28.58025 26635 ft 397 kts 292°
2026-04-27 14:37 39.46725 -28.61192 27018 ft 397 kts 293°
2026-04-27 14:37 39.47971 -28.64363 27331 ft 398 kts 292°
2026-04-27 14:38 39.49210 -28.67525 27695 ft 398 kts 292°
2026-04-27 14:38 39.50480 -28.70763 27990 ft 400 kts 292°
2026-04-27 14:38 39.51726 -28.73950 28256 ft 402 kts 291°
2026-04-27 14:38 39.52991 -28.77184 28557 ft 404 kts 292°
2026-04-27 14:39 39.54262 -28.80436 28900 ft 404 kts 291°
2026-04-27 14:39 39.55512 -28.83648 29186 ft 406 kts 291°
2026-04-27 14:39 39.56791 -28.86924 29564 ft 406 kts 291°
2026-04-27 14:39 39.58069 -28.90208 29784 ft 409 kts 291°
2026-04-27 14:40 39.59349 -28.93503 30089 ft 410 kts 291°
2026-04-27 14:40 39.60619 -28.96772 30436 ft 410 kts 291°
2026-04-27 14:40 39.61908 -29.00092 30685 ft 413 kts 291°
2026-04-27 14:40 39.63187 -29.03395 30918 ft 415 kts 291°
2026-04-27 14:41 39.64489 -29.06759 31272 ft 414 kts 291°
2026-04-27 14:41 39.65783 -29.10107 31477 ft 417 kts 291°
2026-04-27 14:41 39.67061 -29.13414 31795 ft 416 kts 291°
2026-04-27 14:41 39.68355 -29.16772 31989 ft 418 kts 291°
2026-04-27 14:42 39.69667 -29.20177 32210 ft 420 kts 291°
2026-04-27 14:42 39.70956 -29.23517 32453 ft 421 kts 291°
2026-04-27 14:42 39.72267 -29.26929 32681 ft 421 kts 291°
2026-04-27 14:42 39.73563 -29.30303 32870 ft 422 kts 291°
2026-04-27 14:43 39.74883 -29.33744 33063 ft 423 kts 291°
2026-04-27 14:43 39.76197 -29.37173 33253 ft 424 kts 291°
2026-04-27 14:43 39.77499 -29.40581 33437 ft 425 kts 291°
2026-04-27 14:43 39.78805 -29.43994 33605 ft 425 kts 291°
2026-04-27 14:44 39.80127 -29.47452 33763 ft 426 kts 291°
2026-04-27 14:44 39.81435 -29.50882 33927 ft 426 kts 291°
2026-04-27 14:44 39.82750 -29.54333 34101 ft 426 kts 291°
2026-04-27 14:44 39.84059 -29.57776 34243 ft 427 kts 291°
2026-04-27 14:45 39.85362 -29.61200 34389 ft 427 kts 291°
2026-04-27 14:45 39.86684 -29.64683 34525 ft 427 kts 291°
2026-04-27 14:45 39.87989 -29.68126 34672 ft 427 kts 290°
2026-04-27 14:45 39.89306 -29.71598 34838 ft 428 kts 290°
2026-04-27 14:46 39.90616 -29.75063 34991 ft 427 kts 290°
2026-04-27 14:46 39.91910 -29.78488 35150 ft 427 kts 290°
2026-04-27 14:46 39.93220 -29.81958 35306 ft 427 kts 290°
2026-04-27 14:46 39.94516 -29.85397 35457 ft 426 kts 290°
2026-04-27 14:47 39.95829 -29.88879 35611 ft 426 kts 290°
2026-04-27 14:47 39.97123 -29.92319 35764 ft 425 kts 290°
2026-04-27 14:47 39.98426 -29.95791 35920 ft 424 kts 290°
2026-04-27 14:47 39.99713 -29.99217 36064 ft 423 kts 290°
2026-04-27 14:48 40.00967 -30.02676 36221 ft 421 kts 289°
2026-04-27 14:48 40.03424 -30.09545 36521 ft 419 kts 289°
2026-04-27 14:48 40.04648 -30.12967 36666 ft 417 kts 289°
2026-04-27 14:49 40.05861 -30.16365 36811 ft 416 kts 289°
2026-04-27 14:49 40.07075 -30.19770 36957 ft 414 kts 289°
2026-04-27 14:49 40.08279 -30.23154 37097 ft 413 kts 289°
2026-04-27 14:49 40.09483 -30.26531 37243 ft 411 kts 289°
2026-04-27 14:50 40.10681 -30.29910 37377 ft 410 kts 288°
2026-04-27 14:50 40.11883 -30.33296 37504 ft 408 kts 289°
2026-04-27 14:50 40.13055 -30.36605 37626 ft 407 kts 289°
2026-04-27 14:50 40.14246 -30.39968 37471 ft 405 kts 289°
2026-04-27 14:51 40.15414 -30.43269 37621 ft 404 kts 289°
2026-04-27 14:51 40.16597 -30.46617 37757 ft 402 kts 289°
2026-04-27 14:51 40.17755 -30.49905 37895 ft 401 kts 289°
2026-04-27 14:51 40.18530 -30.52097 37990 ft 400 kts 288°
2026-04-27 14:52 40.20073 -30.56482 38173 ft 398 kts 289°
2026-04-27 14:52 40.21229 -30.59771 38313 ft 396 kts 288°
2026-04-27 14:52 40.22368 -30.63009 38443 ft 395 kts 288°
2026-04-27 14:52 40.23514 -30.66278 38577 ft 393 kts 288°
2026-04-27 14:53 40.24635 -30.69479 38738 ft 391 kts 288°
2026-04-27 14:53 40.25768 -30.72715 38895 ft 389 kts 288°
2026-04-27 14:53 40.26883 -30.75903 39048 ft 388 kts 287°
2026-04-27 14:53 40.28003 -30.79111 39199 ft 385 kts 288°
2026-04-27 14:54 40.29105 -30.82274 39356 ft 383 kts 288°
2026-04-27 14:54 40.30206 -30.85426 39502 ft 381 kts 288°
2026-04-27 14:54 40.31291 -30.88545 39626 ft 379 kts 288°
2026-04-27 14:54 40.32382 -30.91686 39771 ft 377 kts 287°
2026-04-27 14:55 40.33465 -30.94797 39887 ft 374 kts 287°
2026-04-27 14:55 40.34535 -30.97891 39938 ft 373 kts 288°
2026-04-27 14:55 40.36670 -31.04052 39942 ft 374 kts 287°
2026-04-27 14:56 40.38811 -31.10243 39937 ft 375 kts 287°
2026-04-27 14:56 40.40932 -31.16395 39920 ft 375 kts 287°
2026-04-27 14:57 40.43079 -31.22655 38023 ft 414 kts 287°
2026-04-27 14:57 40.44278 -31.26142 36091 ft 433 kts 287°
2026-04-27 14:57 40.45513 -31.29733 35153 ft 434 kts 287°
2026-04-27 14:58 40.46748 -31.33315 34933 ft 430 kts 286°
2026-04-27 14:58 40.47744 -31.36237 35032 ft 430 kts 286°
2026-04-27 14:58 40.48597 -31.38738 34930 ft 434 kts 286°
2026-04-27 14:58 40.49540 -31.41502 34891 ft 436 kts 287°
2026-04-27 14:59 40.52388 -31.49846 34919 ft 438 kts 286°
2026-04-27 14:59 40.54858 -31.57111 34921 ft 435 kts 286°
2026-04-27 15:00 40.57303 -31.64315 34916 ft 433 kts 285°
2026-04-27 15:00 40.59723 -31.71474 34930 ft 434 kts 285°
2026-04-27 15:01 40.62167 -31.78721 34936 ft 433 kts 285°
2026-04-27 15:01 40.64579 -31.85879 34931 ft 432 kts 285°
2026-04-27 15:02 40.67014 -31.93136 34944 ft 435 kts 284°
2026-04-27 15:02 40.69441 -32.00383 34933 ft 433 kts 284°
2026-04-27 15:03 40.71846 -32.07583 34925 ft 430 kts 284°
2026-04-27 15:03 40.74247 -32.14798 34923 ft 431 kts 284°
2026-04-27 15:04 40.76637 -32.21988 34923 ft 429 kts 283°
2026-04-27 15:04 40.79023 -32.29199 34923 ft 431 kts 284°
2026-04-27 15:05 40.81399 -32.36379 34919 ft 430 kts 284°
2026-04-27 15:05 40.83773 -32.43580 34924 ft 429 kts 284°
2026-04-27 15:06 40.86101 -32.50661 34914 ft 427 kts 283°